Notices

What's New in latest Release from April 7th, 2021:

- Updated Glossary, including Speed of Maximum Gust, and Total Hourly Precipitation

- Updated national and regional climate services offices contacts and prices information

- Addition of station inventory lists for 1981-2010, 1971-2000, and 1961-1990 Normals.

If you haven't already, please take our survey and provide feedback about our website: https://eccc.sondage-survey.ca/f/LanguageSelection.aspx?s=442ca660-fcf1-47c0-95a9-59707d6fd709

Hourly Data Report for January 05, 2004

TORONTO CITY
ONTARIO

43°40'00.000" N
79°24'00.000" W
112.50 m
6158355
71508
XTO

Download Data

Hourly Data (January 2004)
Hourly Data Report for January 5, 2004
TIME
LST
Temp Definition
°C
Dew Point Definition
°C
Rel Hum Definition
%
Precip. Amount Definition
mm

Wind Dir Definition
10's deg

Wind Spd Definition
km/h
Visibility Definition
km
Stn Press Definition
kPa
Hmdx Definition


Wind Chill Definition


Weather Definition


00:00 -1.7 -3.0 91   LegendMM LegendMM LegendMM 100.11     LegendNANA
01:00 -2.1 -3.3 91   LegendMM LegendMM LegendMM 100.16     LegendNANA
02:00 -3.3 -4.0 95   LegendMM LegendMM LegendMM 100.11     LegendNANA
03:00 -3.8 -4.5 95   LegendMM LegendMM LegendMM 100.03     LegendNANA
04:00 -4.0 -5.0 93   LegendMM LegendMM LegendMM 99.93     LegendNANA
05:00 -4.3 -5.4 92   LegendMM LegendMM LegendMM 99.83     LegendNANA
06:00 -4.5 -5.4 93   LegendMM LegendMM LegendMM 99.81     LegendNANA
07:00 -4.7 -5.6 93   LegendMM LegendMM LegendMM 99.79     LegendNANA
08:00 -4.9 -5.9 93   LegendMM LegendMM LegendMM 99.85     LegendNANA
09:00 -4.6 -6.1 89   LegendMM LegendMM LegendMM 99.90     LegendNANA
10:00 -4.7 -6.4 88   LegendMM LegendMM LegendMM 99.93     LegendNANA
11:00 -4.2 -6.6 83   LegendMM LegendMM LegendMM 99.89     LegendNANA
12:00 -4.0 -6.8 81   LegendMM LegendMM LegendMM 99.87     LegendNANA
13:00 -4.2 -7.9 75   LegendMM LegendMM LegendMM 99.85     LegendNANA
14:00 -4.0 -7.7 75   LegendMM LegendMM LegendMM 99.86     LegendNANA
15:00 -3.6 -7.2 76   LegendMM LegendMM LegendMM 99.93     LegendNANA
16:00 -3.6 -7.0 77   LegendMM LegendMM LegendMM 99.99     LegendNANA
17:00 -3.6 -7.2 76   LegendMM LegendMM LegendMM 100.03     LegendNANA
18:00 -3.2 -6.6 77   LegendMM LegendMM LegendMM 100.09     LegendNANA
19:00 -3.1 -6.4 78   LegendMM LegendMM LegendMM 100.14     LegendNANA
20:00 -2.8 -6.5 76   LegendMM LegendMM LegendMM 100.17     LegendNANA
21:00 -3.0 -6.6 76   LegendMM LegendMM LegendMM 100.20     LegendNANA
22:00 -3.8 -8.3 71   LegendMM LegendMM LegendMM 100.26     LegendNANA
23:00 -4.4 -8.7 72   LegendMM LegendMM LegendMM 100.26     LegendNANA

Notes on Data Quality.

Legend

  • E = Estimated
  • M = Missing
  • NA = Not Available*
  • [empty] = Indicates an unobserved value
Date modified: